Powrót do katalogu

DELTA 1 DEB

AktywnyPO
NORAD 21504·DEBRIS·🇺🇸 United States

Wystrzelony Jun 12, 1975 z Vandenberg Space Force Base

Loading…

Następne Przeloty (najbliższe 24 godziny)

TLE

ŚwieżeSource: Space-Track

Epoka: Sep 14, 2026, 05:20 UTC

1 21504U 75052FZ  26257.22224506  .00000102  00000-0  53351-3 0  9999
2 21504  99.8267 171.0316 0547322 342.6191 171.9725 12.48694548606121

Śledź DELTA 1 DEB w czasie rzeczywistym z AllMySat

Download on the App Store